Track STARLINK-1458 now! 10-day predictions STARLINK-1458 is classified as:
1 45675U 20035U 22138.50244742 .00000238 00000-0 34881-4 0 9992 2 45675 53.0552 191.8980 0002204 39.8481 320.2670 15.06399386109017